#timestamp,LO_Frequency,Hit,StdDev 
1600131615.9,286047001.0,N
1600131635.7,286046998.1,N
1600131655.5,286047000.5,N
1600131675.4,286046998.2,N
1600131695.2,286046998.6,N
1600131715.1,286047000.5,N
1600131716.0,286047000.5,N
1600131735.8,286047002.3,N
1600131755.6,286047001.0,N
1600131775.5,286047001.0,N
1600131795.3,286047002.0,N
1600131815.1,286047000.2,N
1600131835.9,286046999.9,N
1600131855.7,286047002.0,N
1600131875.6,286047000.4,N
1600131895.4,286047000.3,N
1600131915.2,286047002.8,N
1600131935.1,286047002.5,N
1600131936.0,286047002.5,N
1600131955.8,286047000.3,N
1600131975.6,286047000.1,N
1600131995.5,286047000.3,N
1600132015.3,286046998.3,N
1600132035.2,286047000.3,N
1600132055.9,286047000.2,N
1600132075.7,286047002.0,N
1600132095.6,286047002.2,N
1600132115.4,286047002.1,N
1600132135.2,286047002.1,N
1600132155.1,286047000.3,N
1600132156.0,286047000.3,N
1600132175.8,286046999.7,N
1600132195.7,286047000.6,N
1600132215.5,286047000.1,N
1600132235.3,286047003.9,Y
1600132255.2,286047001.5,P
1600132275.9,286047001.5,P
1600132295.7,286047001.8,P
1600132315.6,286047000.5,N
1600132335.4,286047000.1,N
1600132355.3,286047000.5,N
1600132375.1,286047000.0,N
1600132376.0,286047000.0,N
1600132395.8,286047000.9,N
1600132415.7,286047004.4,Y
1600132435.5,286047002.8,P
1600132455.3,286047000.5,N
1600132475.2,286047002.4,N
1600132495.0,286047002.8,N
1600132495.9,286047002.8,N
1600132515.8,286047000.0,N
1600132535.6,286047002.2,N
1600132555.4,286046999.8,N
1600132575.3,286047000.0,N
1600132595.1,286047001.2,N
1600132615.8,286046998.7,N
1600132635.7,286046998.2,N
1600132655.5,286047002.2,N
1600132675.4,286047001.4,N
1600132695.2,286047002.4,N
1600132715.0,286047002.2,N
1600132715.9,286047002.2,N
1600132735.8,286047000.1,N
1600132755.6,286047002.7,N
1600132775.4,286047002.5,N
1600132795.3,286047002.8,N
1600132815.1,286047001.6,N
1600132835.9,286047000.5,N
1600132855.7,286047002.8,N
1600132875.5,286047002.2,N
1600132895.4,286047002.4,N
1600132915.2,286047000.2,N
1600132935.0,286047002.3,N
1600132935.9,286047002.3,N
1600132955.8,286046999.8,N
1600132975.6,286046999.9,N
1600132995.5,286047000.6,N
1600133015.3,286047000.3,N
1600133035.1,286047000.3,N
1600133055.9,286047002.5,N
1600133075.7,286047001.9,N
1600133095.5,286047000.3,N
1600133115.4,286047002.3,N
1600133135.2,286047000.4,N
1600133155.1,286047002.0,N
1600133156.0,286047002.0,N
1600133175.8,286047004.3,Y
1600133195.6,286047001.0,P
1600133215.5,286046998.6,P
1600133235.3,286046998.6,N
1600133255.2,286047000.2,N
1600133275.9,286046998.2,N
1600133295.7,286046998.3,N
1600133315.6,286046999.2,N
1600133335.4,286047001.1,N
1600133355.2,286047001.0,N
1600133375.1,286047000.4,N
1600133376.0,286047000.4,N
1600133395.8,286047000.1,N
1600133415.7,286047000.8,N
1600133435.5,286047001.0,N
1600133455.3,286047000.6,N
1600133475.2,286047002.8,N
1600133495.9,286047000.5,N
1600133515.7,286047000.2,N
1600133535.6,286047000.0,N
1600133555.4,286046998.5,N
1600133575.2,286047001.0,N
1600133595.1,286047000.0,N
1600133596.0,286047000.0,N
1600133615.8,286047000.9,N
1600133635.7,286046998.1,N
1600133655.5,286047001.2,N
1600133675.3,286046999.3,N
1600133695.2,286046999.6,N
1600133715.0,286046997.0,N
1600133715.9,286046997.0,N
1600133735.8,286046997.1,N
1600133755.6,286046999.6,N
1600133775.4,286046999.5,N
1600133795.3,286046996.8,N
1600133815.1,286046997.1,N
1600133835.8,286046997.7,N
1600133855.7,286046996.6,N
1600133875.5,286046997.2,N
1600133895.4,286046997.1,N
1600133915.2,286046997.9,N
1600133935.0,286046999.5,N
1600133935.9,286046999.5,N
1600133955.8,286046997.7,N
1600133975.6,286046995.8,N
1600133995.4,286046995.1,N
1600134015.3,286046998.0,N
1600134035.1,286046995.6,N
1600134055.9,286046996.2,N
1600134075.7,286046993.3,Y
1600134095.5,286046999.5,P
1600134115.4,286046996.8,P
1600134135.2,286046997.3,N
1600134155.1,286046999.1,N
1600134156.0,286046999.1,N
1600134175.8,286046999.1,N
1600134195.6,286046997.5,N
1600134215.5,286046999.3,N
1600134235.3,286046997.1,Y
1600134255.2,286046998.8,P
1600134275.9,286047000.5,N
1600134295.7,286047000.6,N
1600134315.6,286046998.2,N
1600134335.4,286047000.3,N
1600134355.2,286046998.4,N
1600134375.1,286046998.7,N
1600134376.0,286046998.7,N
1600134395.8,286046998.7,N
1600134415.7,286046998.4,N
1600134435.5,286046998.3,N
1600134455.3,286046998.6,N
1600134475.2,286046999.3,N
1600134495.0,286046999.1,N
1600134495.9,286046999.1,N
1600134515.8,286046997.1,Y
1600134535.6,286046998.2,P
1600134555.4,286046999.3,N
1600134575.3,286046999.1,N
1600134595.1,286046999.1,N
1600134615.8,286046999.4,N
1600134635.7,286046999.4,N
1600134655.5,286047001.0,N
1600134675.4,286046999.8,N
1600134695.2,286047001.2,N
1600134715.0,286046998.4,N
1600134715.9,286046998.4,N
1600134735.8,286047001.2,N
1600134755.6,286046999.7,N
1600134775.4,286047002.7,N
1600134795.3,286047002.2,N
1600134815.1,286047001.0,N
1600134835.9,286047001.1,N
1600134855.7,286046999.4,N
1600134875.5,286047001.1,N
1600134895.4,286047002.7,N
1600134915.2,286047000.4,N
1600134935.0,286047001.2,N
1600134935.9,286047001.2,N
1600134955.8,286046998.2,N
1600134975.6,286046999.3,N
1600134995.5,286047000.9,N
1600135015.3,286046999.8,N
1600135035.1,286046999.8,N
1600135055.9,286047001.2,N
1600135075.7,286047002.4,N
1600135095.6,286046999.1,N
1600135115.4,286046998.7,N
1600135135.2,286046998.4,N
1600135155.1,286047000.6,N
1600135156.0,286047000.6,N
1600135175.8,286047001.0,N
1600135195.6,286047000.7,N
